Terminal Aerodrome Forecast
Issued by NWS

Home | Current Version | Previous Version | Text Only | Print | Product List | Glossary On
Versions: 1 2 3 4 5 6 7 8 9 10 11 12 13 14 15 16 17 18 19 20
000
FTUS42 KJAX 110003 AAA
TAFCRG
TAF AMD
KCRG 110003Z 1100/1124 02010KT P6SM OVC030
     FM110200 02009KT P6SM SCT025 OVC035
     FM111000 08007KT P6SM VCSH BKN025 OVC040
     FM111700 13008KT P6SM VCSH BKN040=

USA.gov is the U.S. government's official web portal to all federal, state and local government web resources and services.